International Virtual Aviation Organisation

Russian Federation and Kazakhstan MCD

 

Карточка аэропорта UOOO

Внимание!
Информация на этой странице в стадии наполнения.
Если вы не увидели какой-то информации, или заметили неточность - пожалуйста сообщите нам!
Спасибо!
Команда RU-STAFF
Название аэропортаАлыкель
Название аэропорта (англ.)Alykel
Превышение574 ft. (175 m.)
Координаты69°19.02', 87°19.02'
Высота перехода1200m
Эшелон переходаQFE>744:FL60;744>QFE>717:FL70;717>QFE:FL80
Коды ответчика5401-5427
Зона ОрВДКрасноярск РПИ (UNKL)
Данные METARUOOO 032000Z 18002MPS 0150 R19/0700N FZFG VV001 M16/M17 Q1017 R19/39//37 NOSIG RMK QBB050 QFE747/0996
Проноз погоды (TAF)UOOO 031958Z 0321/0421 23003MPS 0300 FZFG VV002 TEMPO 0321/0403 VRB01MPS 0900 FZFG SCT004 FM040300 21003G08MPS 3100 BR SCT016 TEMPO 0403/0409 1000 BR DRSN SCT011 FM040900 20009G15MPS 2100 -SN BLSN BKN015 BECMG 0412/0414 19011G18MPS TEMPO 0412/0421 0500 BLSN BKN011
NOTAMshow/hide NOTAM
AWOS   TABLE

Информация о ВПП

ВПП Длина ВПП (м.) Покрытие Курс ВПП Частота ILS
013430Бетон13109.5
193430Бетон193110.3

Диспетчерские позиции

Позывной Наименование органа УВД Частота
UOOO_GNDНорильск - Руление121.700
UOOO_TWRНорильск - Старт118.300
UOOO_APPНорильск - Круг120.400



Спутниковое изображение